{"data":{"norad_id":65799,"epoch":"2026-09-20T12:43:15.343680Z","epoch_age_seconds":103456,"freshness":"FRESH","line1":"1 65799U 25218J   26263.53003870  .00011226  00000+0  34947-3 0  9990","line2":"2 65799  97.2845 120.8356 0001602  92.1737 267.9689 15.33450429 54334","mean_motion":15.33450429,"eccentricity":0.0001602,"inclination_deg":97.2845,"raan_deg":120.8356,"arg_perigee_deg":92.1737,"mean_anomaly_deg":267.9689,"bstar":0.00034947,"rev_number":5433,"period_min":93.905872193016,"perigee_km":464.43066666515,"apogee_km":466.62337661768,"semimajor_km":6843.6640216414,"source":"CELESTRAK","updated_at":"2026-09-21T09:00:35.714920Z"}}